TimeAKDT,TemperatureF,Dew PointF,Humidity,Sea Level PressureIn,VisibilityMPH,Wind Direction,Wind SpeedMPH,Gust SpeedMPH,PrecipitationIn,Events,Conditions,WindDirDegrees,DateUTC
12:52 AM,64.9,53.1,65,29.85,9.0,NNE,4.6,-,N/A,,Overcast,20,2013-06-30 08:52:00
1:52 AM,64.9,53.1,65,29.85,9.0,NNE,3.5,-,N/A,,Mostly Cloudy,20,2013-06-30 09:52:00
2:52 AM,64.0,53.1,67,29.84,9.0,ENE,3.5,-,N/A,,Partly Cloudy,70,2013-06-30 10:52:00
3:52 AM,63.0,53.1,70,29.84,8.0,Calm,Calm,-,N/A,,Partly Cloudy,0,2013-06-30 11:52:00
4:52 AM,63.0,54.0,72,29.83,7.0,Calm,Calm,-,N/A,,Mostly Cloudy,0,2013-06-30 12:52:00
5:52 AM,64.9,54.0,68,29.82,8.0,Calm,Calm,-,N/A,,Overcast,0,2013-06-30 13:52:00
6:52 AM,68.0,53.1,59,29.81,10.0,East,3.5,-,N/A,,Scattered Clouds,100,2013-06-30 14:52:00
7:52 AM,69.1,53.1,57,29.80,10.0,East,5.8,-,N/A,,Overcast,90,2013-06-30 15:52:00
8:52 AM,70.0,54.0,57,29.79,7.0,East,5.8,-,N/A,,Clear,100,2013-06-30 16:52:00
9:52 AM,72.0,53.1,51,29.78,7.0,East,5.8,-,N/A,,Partly Cloudy,100,2013-06-30 17:52:00
10:52 AM,73.9,55.0,52,29.76,7.0,ESE,5.8,-,N/A,,Mostly Cloudy,120,2013-06-30 18:52:00
11:52 AM,73.9,55.9,53,29.74,7.0,ESE,5.8,-,N/A,,Mostly Cloudy,110,2013-06-30 19:52:00
12:52 PM,75.0,57.0,53,29.72,7.0,ESE,6.9,-,N/A,,Mostly Cloudy,120,2013-06-30 20:52:00
1:00 PM,75.2,57.2,53,29.72,3.0,ESE,6.9,-,N/A,,Smoke,110,2013-06-30 21:00:00
1:25 PM,75.2,57.2,53,29.71,2.5,ESE,9.2,-,N/A,,Smoke,120,2013-06-30 21:25:00
1:52 PM,75.0,57.9,55,29.70,2.0,ESE,8.1,-,N/A,,Smoke,110,2013-06-30 21:52:00
2:17 PM,75.2,57.2,53,29.69,1.0,ESE,6.9,-,N/A,,Smoke,110,2013-06-30 22:17:00
2:52 PM,75.0,57.9,55,29.68,1.0,SE,8.1,-,N/A,,Smoke,130,2013-06-30 22:52:00
3:52 PM,73.9,57.9,57,29.67,1.0,ESE,5.8,-,N/A,,Smoke,110,2013-06-30 23:52:00
4:52 PM,75.9,57.9,54,29.65,1.0,SE,3.5,-,N/A,,Smoke,130,2013-07-01 00:52:00
5:35 PM,75.2,57.2,53,29.64,1.5,Calm,Calm,-,N/A,,Smoke,0,2013-07-01 01:35:00
5:52 PM,73.0,57.0,57,29.64,1.8,WSW,3.5,-,N/A,,Smoke,250,2013-07-01 01:52:00
6:01 PM,69.8,57.2,64,29.64,3.0,WSW,8.1,19.6,N/A,,Smoke,240,2013-07-01 02:01:00
6:52 PM,66.9,55.9,68,29.65,10.0,WNW,13.8,-,N/A,,Overcast,290,2013-07-01 02:52:00
7:52 PM,62.1,51.1,67,29.64,10.0,West,11.5,20.7,0.00,Rain,Light Rain,270,2013-07-01 03:52:00
8:52 PM,57.9,53.1,84,29.64,10.0,West,9.2,18.4,0.01,Rain,Light Rain,280,2013-07-01 04:52:00
9:52 PM,57.0,52.0,83,29.64,10.0,West,11.5,20.7,0.00,Rain,Light Rain,280,2013-07-01 05:52:00
10:52 PM,55.0,53.1,93,29.67,6.0,WNW,5.8,-,0.05,Rain,Light Rain,300,2013-07-01 06:52:00
11:52 PM,54.0,52.0,93,29.67,6.0,West,5.8,-,0.03,Rain,Light Rain,280,2013-07-01 07:52:00